Albany, NY

2:35 PM EST on December 07, 2019 (GMT -0500)
Albany International

Weather History for KALB - October, 2019

Change the Weather History Date:

Wednesday, October 30, 2019

  Actual Average Record
Temperature  
Mean Temperature 60 °F 45 °F  
Max Temperature 63 °F 54 °F 80 °F (1946)
Min Temperature 57 °F 36 °F 20 °F (1969)
Degree Days  
Heating Degree Days 5 20  
Month to date heating degree days 355 459  
Since 1 July heating degree days 432 626  
Cooling Degree Days 0 0  
Month to date cooling degree days 4 0  
Year to date cooling degree days 771 594  
Growing Degree Days 10 (Base 50)    
Moisture  
Dew Point 53 °F    
Average Humidity 80    
Maximum Humidity 90    
Minimum Humidity 67    
Precipitation  
Precipitation 0.01 in 0.11 in 1.67 in (1917)
Month to date precipitation 6.72 3.56  
Year to date precipitation 37.93 33.01  
Snow  
Snow 0.00 in 0.10 in 0.10 in (1925)
Month to date snowfall 0.0 0.3  
Since 1 July snowfall 0.0 0.3  
Since 1 September snowfall 0.0 0.3  
Snow Depth 0.00 in    
Sea Level Pressure  
Sea Level Pressure 30.22 in    
Wind  
Wind Speed 4 mph ()    
Max Wind Speed 10 mph    
Max Gust Speed 13 mph    
Visibility 9.9 miles    
Events      
T = Trace of Precipitation, MM = Missing Value Source: Averaged Metar Reports

Daily Weather History Graph

Daily Weather History Graph

Search for Another Location

Airport or City:

Astronomy

Oct. 30, 2019 Rise Set
Actual Time 7:26 AM EDT 5:50 PM EDT
Civil Twilight 6:57 AM EDT 6:19 PM EDT
Nautical Twilight 6:23 AM EDT 6:53 PM EDT
Astronomical Twilight 5:51 AM EDT 7:25 PM EDT
Moon 10:09 AM EDT (10/30) 7:53 PM EDT (10/30)
Length of Visible Light 11h 22m
Length of Day
10h 24m
Waxing Crescent, 8% of the Moon is Illuminated
Oct 30
Waxing Crescent
Nov 4
First Quarter
Nov 12
Full
Nov 19
Last Quarter
Nov 26
New

Hourly Weather History & Observations

Time (EDT) Temp. Dew Point Humidity Pressure Visibility Wind Dir Wind Speed Gust Speed Precip Events Conditions
12:51 AM 57.9 °F 52.0 °F 81% 30.29 in 10.0 mi SE 4.6 mph - N/A   Overcast
1:05 AM 57.0 °F 52.0 °F 83% 30.28 in 10.0 mi SSE 5.8 mph - N/A   Overcast
1:51 AM 57.9 °F 52.0 °F 81% 30.28 in 10.0 mi SSE 8.1 mph - N/A   Overcast
2:51 AM 57.9 °F 52.0 °F 81% 30.28 in 10.0 mi South 6.9 mph - N/A   Overcast
3:51 AM 57.0 °F 52.0 °F 83% 30.27 in 10.0 mi SSE 4.6 mph - N/A   Overcast
4:29 AM 57.0 °F 52.0 °F 83% 30.28 in 10.0 mi SSW 4.6 mph - N/A   Overcast
4:51 AM 57.0 °F 52.0 °F 83% 30.29 in 10.0 mi South 4.6 mph - N/A   Overcast
5:30 AM 57.0 °F 53.1 °F 87% 30.27 in 10.0 mi South 5.8 mph - N/A   Overcast
5:51 AM 57.0 °F 53.1 °F 87% 30.28 in 10.0 mi South 4.6 mph - N/A   Overcast
6:51 AM 57.0 °F 53.1 °F 87% 30.28 in 10.0 mi South 3.5 mph - N/A   Overcast
7:51 AM 57.9 °F 53.1 °F 84% 30.30 in 10.0 mi South 8.1 mph - N/A   Overcast
8:51 AM 57.9 °F 53.1 °F 84% 30.31 in 10.0 mi South 4.6 mph - N/A   Overcast
9:51 AM 59.0 °F 54.0 °F 83% 30.30 in 10.0 mi South 6.9 mph - N/A   Overcast
10:51 AM 61.0 °F 54.0 °F 78% 30.30 in 10.0 mi South 5.8 mph - N/A   Overcast
11:51 AM 61.0 °F 54.0 °F 78% 30.29 in 10.0 mi South 5.8 mph - N/A   Overcast
12:51 PM 62.1 °F 53.1 °F 72% 30.28 in 10.0 mi South 9.2 mph - N/A   Overcast
2:51 PM 63.0 °F 52.0 °F 67% 30.22 in 10.0 mi SSE 5.8 mph - N/A   Overcast
3:51 PM 63.0 °F 53.1 °F 70% 30.22 in 10.0 mi South 6.9 mph - N/A   Overcast
4:23 PM 63.0 °F 53.1 °F 70% 30.21 in 10.0 mi SSW 4.6 mph - N/A   Overcast
4:30 PM 63.0 °F 53.1 °F 70% 30.20 in 10.0 mi SSW 4.6 mph - N/A   Overcast
4:51 PM 63.0 °F 53.1 °F 70% 30.20 in 10.0 mi South 5.8 mph - N/A   Overcast
4:57 PM 62.6 °F 53.6 °F 72% 30.20 in 10.0 mi South 3.5 mph - N/A   Overcast
5:51 PM 62.1 °F 54.0 °F 75% 30.20 in 10.0 mi Calm Calm - N/A   Overcast
6:51 PM 62.1 °F 54.0 °F 75% 30.18 in 10.0 mi ESE 3.5 mph - N/A   Overcast
7:45 PM 60.8 °F 53.6 °F 77% 30.16 in 10.0 mi Calm Calm - N/A   Overcast
7:51 PM 61.0 °F 54.0 °F 78% 30.16 in 10.0 mi Calm Calm - N/A   Overcast
7:57 PM 61.0 °F 54.0 °F 78% 30.15 in 10.0 mi Calm Calm - N/A   Overcast
8:09 PM 61.0 °F 54.0 °F 78% 30.14 in 10.0 mi Calm Calm - N/A   Overcast
8:51 PM 60.1 °F 54.0 °F 80% 30.14 in 10.0 mi Calm Calm - N/A   Overcast
9:51 PM 57.9 °F 53.1 °F 84% 30.12 in 10.0 mi Calm Calm - N/A   Overcast
10:51 PM 60.1 °F 55.9 °F 86% 30.09 in 7.0 mi South 4.6 mph - 0.00 in   Light Drizzle
11:08 PM 60.1 °F 55.9 °F 86% 30.08 in 10.0 mi SSW 4.6 mph - 0.00 in   Overcast
11:16 PM 60.1 °F 55.9 °F 86% 30.08 in 10.0 mi SSW 4.6 mph - 0.00 in   Overcast
11:51 PM 59.0 °F 55.9 °F 90% 30.06 in 10.0 mi SSW 5.8 mph - 0.00 in   Overcast